"TOA5","AWS1","CR1000","7964","CR1000.Std.14","CPU:AWS1_114.CR1","64363","TBL110"
"TIMESTAMP","RECORD","Wind_spd_WVc(1)","Wind_spd_WVc(2)","Air_Temp_Avg","Humidity_Avg","SW_upper_Wm2_Avg","Rain_Tot","Press_Avg","Issui_Tot","Depth_cm","SR50A_Raw","Quality","Ground_Temp_Avg(1)","Ground_Temp_Avg(2)","SW_lower_Wm2_Avg","Albedo_Avg","SWC_per(1)","SWC_per(2)","Period(1)","Period(2)"
"TS","RN","","","","","","","","","","","","","","","","","","",""
"","","WVc","WVc","Avg","Avg","Avg","Tot","Avg","Tot","Smp","Smp","Smp","Avg","Avg","Avg","Avg","Smp","Smp","Smp","Smp"
"2016-04-21 00:00:00",232045,0.106,68.61,4.695,78.79,0,0,871.568,0,-5.434,3.207,181,8.09,7.56,0.1782222,0,50.5,58.61,33.42,35.36
"2016-04-21 00:10:00",232046,0.109,275.8,4.768,78.19,0,0,871.5599,0,-5.639,3.209,176,7.982,7.573,0.3678227,0,50.5,58.61,33.42,35.36
"2016-04-21 00:20:00",232047,0.057,186.6,4.301,80.5,0,0,871.5746,0,-5.637,3.213,187,7.954,7.562,0.05688046,0,50.5,58.61,33.42,35.36
"2016-04-21 00:30:00",232048,0.168,87.3,4.221,81.3,0,0,871.4088,0,-5.532,3.212,191,7.932,7.569,0.2881851,0,50.5,58.61,33.42,35.36
"2016-04-21 00:40:00",232049,0,0,4.307,81,0,0,871.4134,0,-5.734,3.212,187,7.905,7.568,0.2313075,0,50.5,58.61,33.42,35.36
"2016-04-21 00:50:00",232050,0,0,4.314,81,0,0,871.3357,0,-5.654,3.211,177,7.874,7.58,0.223719,0,50.5,58.61,33.42,35.36
"2016-04-21 01:00:00",232051,0.085,291.2,4.536,80.2,0,0,871.4659,0,-5.477,3.207,184,7.841,7.58,0.5498096,0,50.5,58.61,33.42,35.36
"2016-04-21 01:10:00",232052,0.087,176.8,4.559,78.95,0,0,871.4631,0,-5.594,3.211,188,7.793,7.566,0.3715864,0,50.5,58.56,33.42,35.35
"2016-04-21 01:20:00",232053,0.193,35.81,4.41,79.82,0,0,871.2372,0,-5.366,3.206,184,7.783,7.558,0.352612,0,50.5,58.56,33.42,35.35
"2016-04-21 01:30:00",232054,0.161,13.92,4.914,76.23,0,0,871.0315,0,-5.313,3.204,188,7.712,7.558,0.7128025,0,50.5,58.56,33.42,35.35
"2016-04-21 01:40:00",232055,0.168,307.6,4.901,76.2,0,0,871.0133,0,-5.103,3.202,195,7.682,7.552,0.3791365,0,50.5,58.56,33.42,35.35
"2016-04-21 01:50:00",232056,0.546,359,4.932,76.16,0,0,871.0382,0,-4.992,3.202,193,7.673,7.532,0.3146639,0,50.5,58.56,33.42,35.35
"2016-04-21 02:00:00",232057,0.316,135,4.793,77.33,0,0,870.817,0,-4.937,3.202,188,7.609,7.52,0.07581928,0,50.5,58.56,33.42,35.35
"2016-04-21 02:10:00",232058,0.276,24.6,4.797,77.51,0,0,870.9834,0,-4.91,3.201,189,7.573,7.517,0.09477166,0,50.5,58.56,33.42,35.35
"2016-04-21 02:20:00",232059,0.286,65.46,4.756,78.2,0,0,870.9897,0,-5.187,3.206,193,7.534,7.506,0.1440523,0,50.5,58.56,33.42,35.35
"2016-04-21 02:30:00",232060,0.529,131.2,4.42,79.59,0,0,870.7916,0,-4.985,3.203,189,7.533,7.496,0,0,50.5,58.56,33.42,35.35
"2016-04-21 02:40:00",232061,0.33,157.9,4.601,78.5,0,0,870.9412,0,-5.086,3.205,193,7.515,7.48,0.08339846,0,50.5,58.56,33.42,35.35
"2016-04-21 02:50:00",232062,0.418,156.9,4.603,79.47,0,0,870.7411,0,-5.842,3.212,184,7.471,7.481,0.1250977,0,50.55,58.56,33.43,35.35
"2016-04-21 03:00:00",232063,0.552,354.2,4.542,80.5,0,0,870.5135,0,-5.817,3.21,187,7.465,7.47,0.1061435,0,50.5,58.56,33.42,35.35
"2016-04-21 03:10:00",232064,0.926,74.79,4.86,78.57,0,0,870.0352,0,-5.237,3.203,185,7.51,7.474,0.329803,0,50.5,58.56,33.42,35.35
"2016-04-21 03:20:00",232065,0.471,285.4,4.985,77.44,0,0,870.1995,0,-5.287,3.204,189,7.489,7.497,0.1023526,0,50.55,58.5,33.43,35.33
"2016-04-21 03:30:00",232066,0.286,119.4,4.895,78.6,0,0,870.0584,0,-5.236,3.204,190,7.456,7.504,0.007581678,0,50.55,58.56,33.43,35.35
"2016-04-21 03:40:00",232067,0.386,191.4,4.736,79.83,0,0,869.9384,0,-4.985,3.202,189,7.363,7.496,0.0492809,0,50.5,58.5,33.42,35.33
"2016-04-21 03:50:00",232068,0.312,22.6,5.147,75.56,0,0,870.0795,0,-4.681,3.196,194,7.357,7.494,0.4359464,0,50.5,58.56,33.42,35.35
"2016-04-21 04:00:00",232069,0.254,153.4,4.923,77.37,0,0,869.8477,0,-4.885,3.202,194,7.411,7.453,0.09477096,0,50.5,58.5,33.42,35.33
"2016-04-21 04:10:00",232070,0.736,206.2,5.027,77.24,0,0,869.8055,0,-4.881,3.196,190,7.363,7.416,0.3828747,0,50.5,58.5,33.42,35.33
"2016-04-21 04:20:00",232071,0.708,17.77,5.928,74.11,0.05504281,0,869.774,0,-4.88,3.194,196,7.322,7.4,0.7126777,0.948,50.5,58.5,33.42,35.33
"2016-04-21 04:30:00",232072,0.435,322.8,6.099,72.77,0,0,869.5612,0,-4.574,3.189,195,7.266,7.384,0.4245739,0,50.5,58.5,33.42,35.33
"2016-04-21 04:40:00",232073,0.41,58.53,6.383,70.85,0,0,869.8561,0,-4.828,3.192,190,7.256,7.37,0.3866655,0,50.5,58.5,33.42,35.33
"2016-04-21 04:50:00",232074,0.456,149.2,6.364,70.65,0,0,869.9973,0,-4.37,3.186,193,7.27,7.35,0.257777,0,50.55,58.5,33.43,35.33
"2016-04-21 05:00:00",232075,0.996,174,6.479,71.94,0,0,869.5864,0,-4.117,3.183,197,7.297,7.353,0.1857511,0,50.5,58.5,33.42,35.33
"2016-04-21 05:10:00",232076,0.891,157.3,6.799,74.75,0.2476926,0,869.608,0,-4.316,3.183,198,7.313,7.347,0.3828747,1.157,50.5,58.5,33.42,35.33
"2016-04-21 05:20:00",232077,0.73,155.1,6.936,76.39,1.741712,0,869.649,0,-4.417,3.184,195,7.337,7.344,0.4056197,0.252,50.55,58.5,33.43,35.33
"2016-04-21 05:30:00",232078,0.814,168.5,6.923,77.41,2.657781,0,869.788,0,-4.242,3.183,197,7.336,7.343,0.4321556,0.169,50.5,58.5,33.42,35.33
"2016-04-21 05:40:00",232079,0.918,158.1,6.898,78.69,10.04531,0,869.5919,0,-4.19,3.182,197,7.32,7.343,1.713459,0.169,50.5,58.5,33.42,35.33
"2016-04-21 05:50:00",232080,1.135,163.8,6.987,79.02,21.04208,0,869.4053,0,-4.265,3.182,197,7.26,7.343,3.726394,0.177,50.5,58.5,33.42,35.33
"2016-04-21 06:00:00",232081,0.647,141.1,7.193,77.64,32.10567,0,869.2071,0,-4.312,3.181,197,7.185,7.343,5.504295,0.172,50.5,58.5,33.42,35.33
"2016-04-21 06:10:00",232082,0.552,143.3,7.264,76.94,42.28413,0,869.0741,0,-4.513,3.183,192,7.168,7.339,6.967473,0.164,50.5,58.5,33.42,35.33
"2016-04-21 06:20:00",232083,0.446,20.18,7.204,77.32,69.81309,0,869.0187,0,-4.388,3.183,197,7.166,7.34,11.93341,0.171,50.5,58.5,33.42,35.33
"2016-04-21 06:30:00",232084,0.183,292,6.925,80.5,104.1376,0,869.1866,0,-4.308,3.183,197,7.161,7.334,18.38876,0.176,50.5,58.5,33.42,35.33
"2016-04-21 06:40:00",232085,0.286,119.1,7.036,78.38,97.65491,0,869.3929,0,-4.505,3.184,192,7.151,7.324,16.95904,0.173,50.5,58.5,33.42,35.33
"2016-04-21 06:50:00",232086,0.523,119.7,6.949,74.25,134.5225,0,869.1949,0,-4.626,3.186,190,7.142,7.315,23.6903,0.176,50.5,58.44,33.42,35.32
"2016-04-21 07:00:00",232087,0.63,103.9,6.885,73.29,133.4804,0,868.9442,0,-4.92,3.19,185,7.126,7.3,21.37302,0.161,50.5,58.44,33.42,35.32
"2016-04-21 07:10:00",232088,0.468,104.6,7.155,71.86,145.9828,0,868.6683,0,-4.98,3.187,196,7.107,7.28,29.53509,0.205,50.5,58.44,33.42,35.32
"2016-04-21 07:20:00",232089,0.456,116.9,7.77,69.65,151.0339,0,868.4808,0,-4.867,3.183,181,7.094,7.267,28.52559,0.189,50.5,58.44,33.42,35.32
"2016-04-21 07:30:00",232090,0.432,154,7.913,68.74,160.2688,0,868.3777,0,-4.811,3.182,186,7.084,7.258,26.86467,0.168,50.44,58.44,33.41,35.32
"2016-04-21 07:40:00",232091,0.612,148.5,7.792,68.02,189.677,0,868.0322,0,-3.847,3.173,194,7.08,7.254,32.07493,0.169,50.5,58.44,33.42,35.32
"2016-04-21 07:50:00",232092,0.38,98.7,8.34,66.72,228.9475,0,867.9037,0,-4.367,3.173,189,7.08,7.252,39.12334,0.171,50.5,58.44,33.42,35.32
"2016-04-21 08:00:00",232093,0.547,343.9,8.42,66.2,142.1074,0,867.7542,0,-4.553,3.178,190,7.141,7.252,22.93054,0.161,50.5,58.44,33.42,35.32
"2016-04-21 08:10:00",232094,0.409,66.27,8.31,65.72,139.9025,0,867.6489,0,-4.599,3.177,186,7.165,7.252,22.39621,0.16,50.5,58.44,33.42,35.32
"2016-04-21 08:20:00",232095,0.505,152.8,8.5,65.09,143.7935,0,867.6594,0,-5.108,3.182,194,7.165,7.252,23.09727,0.16,50.5,58.44,33.42,35.32
"2016-04-21 08:30:00",232096,0.286,251,8.37,64.87,167.9372,0,867.6594,0,-5.006,3.181,195,7.165,7.249,27.14072,0.162,50.5,58.44,33.42,35.32
"2016-04-21 08:40:00",232097,0.636,36.97,8.65,61.76,138.7116,0,867.7584,0,-4.902,3.179,186,7.15,7.24,22.13473,0.16,50.5,58.44,33.42,35.32
"2016-04-21 08:50:00",232098,0.664,112.5,8.87,57.76,140.5235,0,867.6868,0,-4.744,3.175,180,7.126,7.175,22.45305,0.16,50.44,58.44,33.41,35.32
"2016-04-21 09:00:00",232099,0.742,122.1,9.18,54.97,165.7913,0,867.6215,0,-4.437,3.171,188,7.096,7.125,27.11798,0.163,50.5,58.44,33.42,35.32
"2016-04-21 09:10:00",232100,0.591,146.3,9.55,53.37,204.6972,0,867.6005,0,-4.48,3.169,188,7.222,7.109,33.9619,0.166,50.5,58.44,33.42,35.32
"2016-04-21 09:20:00",232101,0.645,175.9,9.94,52.19,233.4315,0,867.6068,0,-4.474,3.167,185,7.241,7.122,38.82388,0.166,50.5,58.44,33.42,35.32
"2016-04-21 09:30:00",232102,0.589,71.05,10.12,53.37,230.9279,0,867.7079,0,-4.313,3.163,189,7.227,7.157,37.75902,0.164,50.5,58.44,33.42,35.32
"2016-04-21 09:40:00",232103,0.638,122.1,10.43,54.1,236.391,0,867.8995,0,-4.313,3.163,193,7.27,7.173,38.30471,0.162,50.5,58.44,33.42,35.32
"2016-04-21 09:50:00",232104,0.908,120.2,10.3,56.42,186.0879,0,867.7328,0,-4.617,3.168,184,7.295,7.162,28.87582,0.155,50.5,58.44,33.42,35.32
"2016-04-21 10:00:00",232105,0.858,86.4,10.25,58.3,190.2555,0,867.5964,0,-4.352,3.165,181,7.272,7.11,30.14682,0.158,50.44,58.44,33.41,35.32
"2016-04-21 10:10:00",232106,0.603,19.62,10.57,58.69,228.9471,0,867.5679,0,-5.103,3.169,189,7.226,7.084,36.71249,0.16,50.5,58.44,33.42,35.32
"2016-04-21 10:20:00",232107,0.628,70.4,10.74,60.33,165.7935,0,867.4435,0,-4.665,3.166,184,7.323,7.064,24.62072,0.148,50.44,58.44,33.41,35.32
"2016-04-21 10:30:00",232108,0.466,67.46,10.6,62.13,153.7084,0,867.3936,0,-4.474,3.164,193,7.35,7.031,22.06185,0.143,50.5,58.44,33.42,35.32
"2016-04-21 10:40:00",232109,0.361,22.66,10.52,64.57,108.3051,0,867.6062,0,-4.473,3.165,193,7.278,7.012,14.30545,0.132,50.5,58.44,33.42,35.32
"2016-04-21 10:50:00",232110,0.935,57.17,10.27,66.83,115.9757,0,86
"2016-04-21 10:50:00",232110,0.935,57.17,10.27,66.83,115.9757,0,867.4924,0,-4.603,3.168,174,7.299,7.027,15.96438,0.137,50.44,58.44,33.41,35.32
"2016-04-21 11:00:00",232111,0.772,68.04,10.05,67.8,119.3614,0,867.3243,0,-4.627,3.168,175,7.427,7.043,17.05148,0.142,50.5,58.38,33.42,35.31
"2016-04-21 11:10:00",232112,0.661,65.21,10.12,66.27,120.3579,0,867.2976,0,-4.525,3.166,171,7.409,7.051,17.46477,0.145,50.44,58.38,33.41,35.31
"2016-04-21 11:20:00",232113,0.694,52.7,10.15,65.42,106.8441,0,867.1339,0,-4.512,3.167,174,7.384,7.061,14.80563,0.139,50.44,58.38,33.41,35.31
"2016-04-21 11:30:00",232114,0.497,80.1,10.07,64.86,125.9458,0,866.7301,0,-4.236,3.164,186,7.495,7.089,18.11003,0.143,50.5,58.38,33.42,35.31
"2016-04-21 11:40:00",232115,0.577,115,10.18,63.95,140.56,0,866.3868,0,-4.398,3.166,188,7.528,7.103,20.52032,0.145,50.44,58.38,33.41,35.31
"2016-04-21 11:50:00",232116,0.524,35.97,10.13,66.78,117.3529,0,866.1259,0,-5.938,3.182,179,7.523,7.117,17.16469,0.146,50.44,58.38,33.41,35.31
"2016-04-21 12:00:00",232117,0.884,154.4,9.77,67.75,143.9185,0,865.6489,0,-4.898,3.173,188,7.506,7.141,22.39426,0.156,50.44,58.38,33.41,35.31
"2016-04-21 12:10:00",232118,0.79,66.79,9.63,67.23,137.7332,0,865.2188,0,-4.497,3.17,194,7.603,7.142,22.69747,0.165,50.44,58.38,33.41,35.31
"2016-04-21 12:20:00",232119,0.88,111,9.5,68,119.0388,0,864.8714,0,-5.171,3.179,187,7.645,7.153,18.92029,0.159,50.44,58.38,33.41,35.31
"2016-04-21 12:30:00",232120,0.852,56.41,8.71,77.88,145.206,0,864.6407,0,-5.361,3.185,178,7.657,7.16,20.65268,0.143,50.44,58.38,33.41,35.31
"2016-04-21 12:40:00",232121,0.794,103.5,8.33,85.8,226.5954,0,864.422,0,-4.753,3.179,202,7.646,7.165,31.14987,0.137,50.44,58.38,33.41,35.31
"2016-04-21 12:50:00",232122,0.695,150.4,8.46,86.3,163.5506,0,864.1398,0,-5.006,3.181,183,7.633,7.17,22.13847,0.135,50.44,58.38,33.41,35.31
"2016-04-21 13:00:00",232123,0.571,215.1,8.25,88.5,91.3044,0.5,864.0977,0,-5.265,3.186,178,7.616,7.166,11.73242,0.128,50.39,58.38,33.39,35.31
"2016-04-21 13:10:00",232124,0.738,122.3,7.958,89.7,63.29329,0,863.9734,0,-5.27,3.188,183,7.646,7.108,7.779928,0.123,50.44,58.38,33.41,35.31
"2016-04-21 13:20:00",232125,0.799,311,7.616,99.9,42.63572,0.5,864.1503,0,-5.018,3.187,187,7.714,7.08,5.180303,0.122,50.39,58.38,33.39,35.31
"2016-04-21 13:30:00",232126,0.469,50.09,7.449,100,55.68032,0,864.1124,0,-4.867,3.186,187,7.765,7.08,6.578643,0.118,50.39,58.38,33.39,35.31
"2016-04-21 13:40:00",232127,0.366,90.4,7.317,100,43.29601,0.5,864.0282,0,-4.918,3.187,190,7.771,7.078,5.252304,0.122,50.39,58.38,33.39,35.31
"2016-04-21 13:50:00",232128,0.813,146.8,7.234,98.9,41.82607,0.5,863.8955,0,-4.92,3.188,186,7.771,7.078,5.297778,0.127,50.39,58.38,33.39,35.31
"2016-04-21 14:00:00",232129,0.482,125.4,7.09,99.8,42.64357,0.5,863.3816,0,-4.615,3.185,182,7.773,7.078,5.233356,0.123,50.44,58.38,33.41,35.31
"2016-04-21 14:10:00",232130,0.926,114.1,7,100,77.06893,0.5,863.5564,0,-5.074,3.191,178,7.784,7.078,9.307113,0.121,50.39,58.38,33.39,35.31
"2016-04-21 14:20:00",232131,1.854,160.5,7.003,89,110.6611,0,862.8318,0,-4.465,3.184,192,7.828,7.078,13.83182,0.125,50.39,58.38,33.39,35.31
"2016-04-21 14:30:00",232132,1.211,153.8,7.009,87.6,97.29826,0.5,862.2863,0,-5.025,3.19,185,7.902,7.079,12.48277,0.128,50.39,58.32,33.39,35.29
"2016-04-21 14:40:00",232133,1.834,157.2,6.931,83.3,110.2979,0.5,861.5807,0,-5.038,3.19,188,7.926,7.093,14.3177,0.13,50.44,58.38,33.41,35.31
"2016-04-21 14:50:00",232134,0.879,83.5,6.75,86.3,66.28136,0,861.8988,0,-3.887,3.181,238,7.962,7.115,8.622367,0.13,50.55,58.32,33.43,35.29
"2016-04-21 15:00:00",232135,1.386,154.8,6.524,90.3,71.86455,0.5,861.5723,0,-4.455,3.187,204,7.985,7.133,9.328014,0.13,50.55,58.38,33.43,35.31
"2016-04-21 15:10:00",232136,0.947,151.7,6.533,90.1,77.85575,0,861.1342,0,-4.109,3.183,250,8,7.148,9.855391,0.127,50.66,58.38,33.46,35.31
"2016-04-21 15:20:00",232137,1.194,163.7,6.566,90.9,63.01006,0.5,860.8309,0,-3.963,3.182,251,8.01,7.162,8.002186,0.127,50.72,58.38,33.47,35.31
"2016-04-21 15:30:00",232138,1.648,155.6,6.605,92.3,98.75349,0,860.0496,0,-4.317,3.184,205,8,7.166,12.78256,0.129,50.83,58.38,33.5,35.31
"2016-04-21 15:40:00",232139,1.334,156.6,6.751,91.1,57.75933,0.5,859.6377,0,-5.077,3.192,193,7.988,7.168,7.702954,0.134,50.94,58.38,33.53,35.31
"2016-04-21 15:50:00",232140,0.768,146.6,6.678,96.5,51.25264,0.5,859.7662,0,-3.813,3.18,273,7.984,7.189,6.611213,0.131,51.05,58.44,33.56,35.32
"2016-04-21 16:00:00",232141,0.815,182.2,6.513,100,45.35918,0.5,859.9547,0,-4.597,3.188,187,7.972,7.205,5.773443,0.128,51.21,58.44,33.6,35.32
"2016-04-21 16:10:00",232142,0.937,133.5,6.341,100,37.57849,0,860.2484,0,-4.423,3.188,217,7.967,7.234,4.871224,0.131,51.44,58.5,33.65,35.33
"2016-04-21 16:20:00",232143,1.734,150.2,6.528,95.3,28.41387,0.5,860.115,0,-5.584,3.197,186,7.968,7.244,4.12443,0.15,51.55,58.5,33.68,35.33
"2016-04-21 16:30:00",232144,1.065,151,6.64,91.3,26.90412,0,859.9847,0,-4.244,3.185,237,7.981,7.258,3.991751,0.151,51.71,58.56,33.72,35.35
"2016-04-21 16:40:00",232145,0.782,126.3,6.495,95.8,22.25694,0.5,860.0607,0,-4.422,3.187,209,7.989,7.269,3.381426,0.154,51.82,58.61,33.75,35.36
"2016-04-21 16:50:00",232146,0.463,13.38,6.289,99.7,15.19181,0,860.0452,0,-4.676,3.191,203,8.01,7.299,2.40339,0.159,51.88,58.67,33.76,35.37
"2016-04-21 17:00:00",232147,0.644,76.14,6.13,100,14.58634,0.5,859.7027,0,-4.424,3.189,212,8.03,7.321,2.229012,0.154,51.99,58.79,33.79,35.4
"2016-04-21 17:10:00",232148,0.608,334.6,6.049,100,12.41608,0,859.5734,0,-4.601,3.191,200,8.03,7.328,1.910582,0.154,52.1,58.85,33.81,35.41
"2016-04-21 17:20:00",232149,0.47,49.47,5.966,100,11.9836,0.5,859.619,0,-4.526,3.191,186,8.02,7.335,1.702085,0.143,52.16,58.91,33.83,35.43
"2016-04-21 17:30:00",232150,0.803,95,6.02,100,7.497612,0,859.6111,0,-4.222,3.187,206,8,7.34,1.379864,0.189,52.21,58.97,33.84,35.44
"2016-04-21 17:40:00",232151,0.597,104.3,6.193,100,5.948552,0.5,859.6068,0,-4.625,3.19,200,7.921,7.334,1.402609,0.237,52.27,59.08,33.85,35.47
"2016-04-21 17:50:00",232152,0.797,150.5,6.166,100,4.387695,0,859.4888,0,-5.688,3.201,181,7.87,7.327,1.118297,0.256,52.32,59.2,33.87,35.5
"2016-04-21 18:00:00",232153,0.52,138.8,6.086,100,4.509576,0.5,859.0578,0,-5.283,3.197,179,7.862,7.324,1.019735,0.231,52.38,59.32,33.88,35.52
"2016-04-21 18:10:00",232154,0.875,156.2,6.351,100,2.677438,0.5,858.7301,0,-6.139,3.202,187,7.862,7.301,1.118297,0.433,52.38,59.38,33.88,35.54
"2016-04-21 18:20:00",232155,0.721,170.8,6.655,99.8,1.3053,0,858.5854,0,-4.623,3.188,202,7.862,7.298,0.9249641,0.74,52.44,59.5,33.89,35.56
"2016-04-21 18:30:00",232156,0.638,29.55,6.677,100,0.4049576,0.5,858.4294,0,-4.623,3.188,232,7.862,7.296,0.8074481,1.647,52.55,59.61,33.92,35.59
"2016-04-21 18:40:00",232157,0.57,6.393,6.35,100,0,0.5,858.3814,0,-6.292,3.207,182,7.836,7.277,0.2805194,0,52.6,59.67,33.94,35.6
"2016-04-21 18:50:00",232158,0.347,10.44,6.146,100,0,0.5,858.3562,0,-4.271,3.187,377,7.828,7.261,0.1743768,0,52.66,59.79,33.95,35.63
"2016-04-21 19:00:00",232159,0.322,69.56,6.165,100,0,0.5,858.3509,0,-6.041,3.204,184,7.833,7.256,0.2350308,0,52.83,59.91,33.99,35.66
"2016-04-21 19:10:00",232160,1.114,43.5,6.39,100,0.1140171,1,858.4059,0,-5.836,3.199,198,7.797,7.256,0.5231348,0.86,53,60.03,34.03,35.69
"2016-04-21 19:20:00",232161,0.759,76.2,6.994,100,0.1454701,0.5,858.3981,0,-6.138,3.2,197,7.776,7.256,0.6558145,1.294,53.11,60.27,34.06,35.74
"2016-04-21 19:30:00",232162,0.539,50.51,7.147,100,0,0.5,858.2742,0,-6.239,3.201,196,7.776,7.267,0.4662729,0,53.28,60.5,34.1,35.79
"2016-04-21 19:40:00",232163,0.583,20.19,7.074,100,0,0.5,858.2341,0,-5.73,3.197,189,7.773,7.311,0.3449632,0,53.39,60.86,34.13,35.88
"2016-04-21 19:50:00",232164,0.312,95.2,6.864,100,0,0.5,857.9691,0,-6.287,3.203,188,7.773,7.346,0.1440479,0,53.39,61.28,34.13,35.97
"2016-04-21 20:00:00",232165,0.603,49.45,6.961,100,0.0471781,0,857.9645,0,-6.082,3.199,176,7.787,7.381,0.4245612,0.611,53.45,61.64,34.14,36.05
"2016-04-21 20:10:00",232166,0.772,147.2,7.228,100,0.01572603,0.5,857.6717,0,-5.771,3.196,188,7.767,7.397,0.4965777,0.193,53.45,61.82,34.14,36.09
"2016-04-21 20:20:00",232167,0.764,104.1,7.433,100,0.07469448,0.5,857.5222,0,-5.944,3.196,184,7.73,7.351,0.5382521,0.755,53.45,61.94,34.14,36.12
"2016-04-21 20:30:00",232168,0.667,147.8,7.738,100,0.1847635,0,857.3136,0,-5.729,3.191,187,7.67,7.318,0.7088059,1.414,53.45,62,34.14,36.13
"2016-04-21 20:40:00",232169,0.877,91.6,8.04,100,0.1375845,0.5,857.2546,0,-6.551,3.198,184,7.642,7.296,0.5382041,1.101,53.45,62.06,34.14,36.15
"2016-04-21 20:50:00",232170,0.734,116.9,8.25,100,0.2279752,0,857.261,0,-5.777,3.189,190,7.62,7.274,0.6291168,1.711,53.5,62.06,34.15,36.15
"2016-04-21 21:00:00",232171,0.94,107.6,8.4,100,0.1257735,0,857.1388,0,-6.126,3.192,180,7.607,7.26,0.5267642,1.398,53.45,62.12,34.14,36.16
"2016-04-21 21:10:00",232172,0.725,10.17,8.19,100,0.02358209,0.5,857.2778,0,-6.333,3.198,180,7.601,7.254,0.132636,0.193,53.45,62.12,34.14,36.16
"2016-04-21 21:20:00",232173,0.544,1.99,7.668,100,0,0,857.2209,0,-5.573,3.191,185,7.599,7.253,0,0,53.45,62.12,34.14,36.16
"2016-04-21 21:30:00",232174,0.743,20.91,8.03,100,0.4048198,0,857.1599,0,-5.058,3.182,186,7.598,7.252,0.3713755,0.723,53.39,62.18,34.13,36.17
"2016-04-21 21:40:00",232175,0.69,104.6,8.69,100,0.5856127,0,856.9724,0,-5.51,3.184,176,7.598,7.255,0.5873794,1.066,53.39,62.18,34.13,36.17
"2016-04-21 21:50:00",232176,0.648,93.4,8.91,100,0.2593989,0.5,856.7429,0,-5.507,3.183,193,7.598,7.265,0.2766367,1.037,53.39,62.24,34.13,36.19
"2016-04-21 22:00:00",232177,0.507,151.5,9.15,100,0.2633292,0,856.5469,0,-5.453,3.181,185,7.598,7.303,0.2766367,0.868,53.33,62.24,34.11,36.19
"2016-04-21 22:10:00",232178,0.639,73.77,9.42,100,0.2397475,0,856.5469,0,-5.857,3.184,177,7.598,7.347,0.2122145,0.619,53.33,62.24,34.11,36.19
"2016-04-21 22:20:00",232179,0.59,138.7,9.52,100,0.1139783,0,856.3427,0,-5.55,3.18,190,7.598,7.353,0.1591609,0.418,53.33,62.3,34.11,36.2
"2016-04-21 22:30:00",232180,0.656,87.2,9.66,100,0.110048,0,856.1847,0,-6.617,3.19,192,7.598,7.336,0.1174759,0.346,53.33,62.3,34.11,36.2
"2016-04-21 22:40:00",232181,0.545,61.26,9.88,100,0.2397475,0,856.0793,0,-5.951,3.182,197,7.598,7.326,0.216004,0.651,53.28,62.3,34.1,36.2
"2016-04-21 22:50:00",232182,0.713,51.42,10.01,100,0.06288459,0,856.1088,0,-6.051,3.182,185,7.598,7.31,0.07579089,0.169,53.28,62.3,34.1,36.2
"2016-04-21 23:00:00",232183,0.813,131.1,10.15,100,0.05502402,0,855.9362,0,-5.489,3.176,190,7.598,7.332,0.0341059,0.08,53.22,62.36,34.08,36.21
"2016-04-21 23:10:00",232184,0.965,140.4,10.21,100,0,0,855.774,0,-5.107,3.172,194,7.598,7.328,0.003789545,0,53.28,62.3,34.1,36.2
"2016-04-21 23:20:00",232185,0.555,133.1,10.43,100,0.007860574,0,855.6834,0,-5.181,3.172,190,7.598,7.325,0.04168499,0.016,53.28,62.3,34.1,36.2
"2016-04-21 23:30:00",232186,0.603,51.01,10.47,100,0,0.5,855.7698,0,-5.869,3.179,195,7.598,7.328,0,0,53.22,62.3,34.08,36.2
"2016-04-21 23:40:00",232187,0.629,81,10.33,100,0,0,855.774,0,-5.742,3.178,205,7.59,7.334,0,0,53.22,62.3,34.08,36.2
"2016-04-21 23:50:00",232188,0.631,100.8,10.26,100,0,0.5,855.6329,0,-5.591,3.177,202,7.595,7.315,0,0,53.22,62.3,34.08,36.2
